Consulta los datos en tiempo real de la estación municipal de Roda de Ter
| Hora UTC | 03:50 |
|---|---|
| Temperatura | 14.9 ºC |
| Humedad | 86.0 % |
| Pluja | 0.0 mm |
| Velocidad viento | 0.8 km/h |
| Dirección viento | NE |
| Temperatura (ºC) | Humedad (%) | Velocidad viento (km/h) | Precipitación (mm) | |||||||||||
|---|---|---|---|---|---|---|---|---|---|---|---|---|---|---|
| Hora UTC | Aire | Humedad | Vel. | Dir. | Vel. Max | Dir. | Intent. máx 5 min. | |||||||
| 00:05 | 16.9 | 76.1 | 0.1 | NE | 0.1 | NE | 0.0 | |||||||
| 00:10 | 16.3 | 80.3 | 0.4 | NE | 2.1 | NE | 0.0 | |||||||
| 00:15 | 16.7 | 78.3 | 2.6 | NE | 3.5 | NE | 0.0 | |||||||
| 00:20 | 16.7 | 77.2 | 1.7 | NE | 3.2 | NE | 0.0 | |||||||
| 00:25 | 16.3 | 78.9 | 2.7 | NE | 4.2 | NE | 0.0 | |||||||
| 00:30 | 16.1 | 79.6 | 1.9 | NE | 4.6 | NE | 0.0 | |||||||
| 00:35 | 16.0 | 80.5 | 0.8 | NE | 3.2 | NE | 0.0 | |||||||
| 00:40 | 15.7 | 82.4 | 0.0 | NE | 1.1 | NE | 0.0 | |||||||
| 00:45 | 15.7 | 82.5 | 0.0 | NNE | 0.0 | NE | 0.0 | |||||||
| 00:50 | 16.0 | 80.8 | 0.3 | NE | 1.8 | NE | 0.0 | |||||||
| 00:55 | 16.0 | 80.7 | 0.9 | NE | 2.1 | NE | 0.0 | |||||||
| 01:00 | 15.7 | 81.8 | 0.8 | NE | 2.1 | NE | 0.0 | |||||||
| 01:05 | 15.4 | 84.3 | 0.0 | NNE | 0.0 | NE | 0.0 | |||||||
| 01:10 | 15.3 | 84.8 | 0.1 | NE | 1.8 | NE | 0.0 | |||||||
| 01:15 | 15.4 | 84.6 | 0.2 | NE | 1.8 | NE | 0.0 | |||||||
| 01:20 | 16.0 | 82.5 | 0.0 | NNE | 0.0 | NE | 0.0 | |||||||
| 01:25 | 16.1 | 82.6 | 0.0 | NNE | 0.0 | NE | 0.0 | |||||||
| 01:30 | 15.8 | 83.6 | 0.1 | NE | 1.4 | NE | 0.0 | |||||||
| 01:35 | 15.7 | 84.1 | 0.5 | NE | 1.8 | NE | 0.0 | |||||||
| 01:40 | 15.1 | 85.6 | 0.0 | NNE | 0.0 | NE | 0.0 | |||||||
| 01:45 | 15.3 | 85.5 | 0.0 | NNE | 0.0 | NE | 0.0 | |||||||
| 01:50 | 15.1 | 85.9 | 0.2 | NE | 2.1 | NE | 0.0 | |||||||
| 01:55 | 15.2 | 85.5 | 3.1 | NNE | 5.3 | NNE | 0.0 | |||||||
| 02:00 | 15.3 | 84.8 | 3.3 | NNE | 5.3 | NNE | 0.0 | |||||||
| 02:05 | 15.3 | 84.6 | 4.5 | NNE | 6.4 | NNE | 0.0 | |||||||
| 02:10 | 15.4 | 84.5 | 6.1 | NNE | 7.4 | NNE | 0.0 | |||||||
| 02:15 | 15.8 | 83.0 | 6.0 | NNE | 8.1 | NNE | 0.0 | |||||||
| 02:20 | 15.9 | 82.2 | 6.6 | NNE | 9.2 | NNE | 0.0 | |||||||
| 02:25 | 15.9 | 81.7 | 5.2 | NNE | 8.1 | NE | 0.0 | |||||||
| 02:30 | 15.9 | 81.6 | 4.5 | NNE | 8.1 | NE | 0.0 | |||||||
| 02:35 | 15.7 | 82.2 | 4.2 | NE | 7.1 | NE | 0.0 | |||||||
| 02:40 | 15.4 | 82.9 | 2.2 | NE | 5.6 | NNE | 0.0 | |||||||
| 02:45 | 15.0 | 84.9 | 0.0 | NNE | 1.4 | NNE | 0.0 | |||||||
| 02:50 | 15.0 | 84.9 | 0.5 | NE | 2.8 | NE | 0.0 | |||||||
| 02:55 | 15.2 | 84.6 | 0.0 | NNE | 0.0 | NE | 0.0 | |||||||
| 03:00 | 15.3 | 84.6 | 0.5 | NE | 3.5 | NE | 0.0 | |||||||
| 03:05 | 15.1 | 85.0 | 2.2 | NE | 3.5 | NE | 0.0 | |||||||
| 03:10 | 15.0 | 85.4 | 0.2 | NE | 1.4 | NE | 0.0 | |||||||
| 03:15 | 14.9 | 85.7 | 0.0 | NNE | 0.0 | NE | 0.0 | |||||||
| 03:20 | 14.8 | 85.7 | 0.0 | NNE | 0.0 | NE | 0.0 | |||||||
| 03:25 | 14.4 | 86.6 | 0.0 | NNE | 0.0 | NE | 0.0 | |||||||
| 03:30 | 14.7 | 85.3 | 0.0 | NNE | 0.0 | NE | 0.0 | |||||||
| 03:35 | 13.9 | 87.1 | 0.0 | NNE | 0.0 | NE | 0.0 | |||||||
| 03:40 | 13.6 | 88.1 | 0.3 | NE | 1.8 | NE | 0.0 | |||||||
| 03:45 | 14.2 | 88.0 | 1.9 | NE | 2.8 | NE | 0.0 | |||||||
| 03:50 | 14.9 | 86.0 | 0.8 | NE | 1.8 | NE | 0.0 | |||||||
| Máxima | 16.9 | 88.1 | 6.6 | NNE | 9.2 | NNE | 0.0 | |||||||
| Mínima | 13.6 | 76.1 | ||||||||||||
| Total | 0.0 | |||||||||||||